Lapse_Rate
8.6 6.4 1.1 1.5 2.0 1.9 2.2 2.6 2.7 2.5 2.3 2.9 2.6 2.7 2.6 2.5 2.7 2.8 2.8 3.0 3.6 4.1 4.5 4.4 4.5 4.8 5.1 4.8 4.4 4.1 4.1 4.3 4.6 4.8 4.8 5.0 5.0 5.1 5.2 5.7 7.2 8.3 5.6
7.6 5.4 0.9 1.5 2.0 1.9 2.0 2.3 2.5 2.3 2.4 2.7 2.6 2.8 2.8 2.6 2.8 3.0 2.9 2.8 3.1 3.8 4.2 4.2 4.4 4.8 4.9 4.3 3.9 3.9 4.3 4.5 4.7 5.0 5.0 5.1 5.1 4.8 5.0 5.4 7.1 5.5 5.3
6.0 4.8 2.7 1.1 1.7 1.7 1.9 2.2 2.5 2.5 2.5 2.6 2.6 2.8 2.8 2.6 2.8 2.9 2.8 2.8 3.1 3.6 4.2 4.4 4.9 4.7 4.2 3.7 3.7 4.0 4.3 4.6 4.7 5.2 6.0 9.5 8.7 5.5 5.3 4.8 4.6 4.9 5.2
6.1 5.0 4.6 0.6 1.3 1.4 1.7 2.0 2.4 2.7 2.6 2.7 2.7 2.9 2.8 2.7 3.0 3.0 2.7 2.7 2.8 3.2 3.6 3.8 4.4 4.5 3.9 3.6 3.6 3.6 3.9 4.4 5.1 5.8 9.1 9.6 9.3 5.7 5.3 5.2 5.4 5.3 5.2
5.3 5.5 5.1 0.1 0.9 1.4 1.8 2.1 2.5 2.7 2.6 2.8 2.8 3.1 3.0 3.0 3.1 3.0 2.8 2.9 3.1 3.7 3.9 4.0 4.0 3.5 3.1 3.2 3.1 3.2 3.6 4.5 5.4 6.8 9.6 9.6 9.5 7.5 6.5 5.8 5.4 5.7 6.8
6.4 7.4 2.5 0.6 1.2 1.7 1.8 2.0 2.3 2.5 2.5 2.6 2.7 2.9 3.1 3.3 3.4 3.0 2.8 2.9 3.3 3.6 3.9 3.9 3.5 2.7 2.7 2.9 3.0 3.2 3.7 4.7 5.4 9.7 9.4 8.7 8.3 7.2 6.9 6.4 6.3 5.8 5.5
6.8 6.9 3.9 0.7 0.9 1.6 1.8 2.1 2.2 2.2 2.3 2.5 2.6 3.0 3.3 3.4 3.4 2.6 2.6 2.9 3.2 3.3 3.4 3.1 2.5 2.4 2.8 2.9 2.7 3.0 3.8 5.2 9.0 9.2 8.2 7.8 7.0 7.0 7.1 6.6 6.1 5.3 5.0
5.1 4.9 4.2 0.8 1.0 1.6 1.9 2.1 1.9 2.0 2.1 2.3 2.7 3.0 3.3 3.5 3.1 2.7 2.8 2.8 3.0 3.0 2.8 2.6 2.2 2.5 2.6 2.7 2.8 2.9 4.0 5.4 9.2 9.6 8.8 8.0 6.5 7.0 6.6 6.5 6.2 6.1 5.5
5.0 4.2 4.2 2.6 2.5 1.6 2.0 2.2 2.2 2.2 2.1 2.4 2.8 2.9 3.2 3.2 2.8 2.7 2.8 3.0 3.0 2.8 2.5 2.3 2.1 2.5 2.6 2.6 2.7 3.2 4.3 6.0 9.6 9.2 9.2 9.1 5.8 6.5 6.5 6.3 6.1 5.9 5.1
4.5 4.4 4.4 2.9 2.7 3.6 4.8 2.6 2.5 2.5 2.3 2.4 2.7 2.9 3.1 3.0 2.6 2.6 2.9 3.0 3.1 2.8 2.5 2.2 2.0 2.4 2.6 2.8 2.4 3.2 4.4 5.9 9.3 9.5 9.4 9.1 6.1 6.3 6.8 6.2 6.1 5.8 4.9
4.9 4.8 4.8 5.0 3.1 2.7 3.5 4.0 2.4 2.4 2.8 2.8 3.0 3.1 3.2 5.8 4.9 4.9 5.2 3.8 2.9 2.8 2.8 2.4 2.3 2.9 2.8 2.5 2.5 3.2 4.4 9.3 8.7 9.6 9.6 5.9 6.9 7.1 6.7 6.4 5.7 5.3 4.4
6.1 5.4 5.6 4.9 5.6 4.0 3.9 4.0 4.3 5.8 6.3 6.4 6.5 6.2 6.3 8.0 8.3 6.8 6.0 3.0 2.6 3.0 3.1 2.7 2.5 2.5 2.7 3.6 4.6 3.5 7.7 8.8 8.9 9.7 9.3 5.8 6.9 7.5 6.8 4.6 4.0 3.6 3.5
9.2 9.5 8.6 7.8 7.6 7.6 4.8 4.1 4.2 4.9 5.3 7.5 7.6 8.1 7.9 9.3 8.2 7.6 6.1 4.6 5.5 3.9 5.2 4.0 3.6 4.4 4.8 5.7 5.4 6.8 8.8 8.0 9.6 9.7 8.3 4.9 7.2 7.2 5.3 4.2 3.1 2.9 2.8
9.3 9.4 9.6 8.1 6.1 5.8 7.6 7.0 4.7 4.2 3.9 4.4 7.2 7.7 8.0 7.3 7.2 6.7 7.0 6.6 8.0 6.8 6.7 6.2 6.0 6.5 5.2 6.6 5.8 7.4 7.8 9.0 9.6 9.6 7.9 5.3 7.0 6.9 5.5 4.3 3.2 2.6 2.6
9.1 9.3 9.4 9.5 5.9 5.4 5.2 8.3 8.7 5.5 5.4 4.1 4.1 6.3 7.0 7.0 6.2 5.8 5.4 5.5 8.2 7.0 6.4 6.3 6.6 6.8 6.0 6.6 7.8 7.4 7.6 9.2 9.5 9.6 8.9 6.8 7.0 7.1 6.0 5.3 3.7 3.2 3.0
6.1 7.8 9.4 8.8 8.8 4.8 5.3 4.9 6.0 5.0 4.4 3.6 3.3 5.3 6.1 6.2 5.3 4.4 4.9 4.3 5.3 5.6 5.0 5.5 5.7 6.1 5.4 4.8 6.6 7.0 7.9 9.1 9.5 9.6 9.3 7.8 7.4 7.5 7.3 7.2 5.5 4.8 4.2
7.6 8.5 7.7 6.9 9.3 7.5 5.5 7.5 7.0 7.7 5.5 4.2 5.4 5.4 5.8 4.8 4.4 4.1 4.3 4.0 4.1 3.9 4.4 5.2 3.9 3.8 3.6 3.3 4.9 5.8 6.9 8.4 9.2 9.6 9.3 8.4 7.3 7.4 7.6 7.1 7.1 5.8 5.7
9.2 8.7 9.1 6.2 8.4 9.2 6.6 7.8 7.5 8.1 6.9 6.3 6.2 6.2 5.7 4.3 4.4 3.8 4.8 4.2 2.8 2.9 3.2 2.7 4.6 4.3 4.3 5.4 6.1 5.6 5.4 7.0 8.7 9.4 9.6 8.4 8.3 8.8 7.5 7.5 7.6 7.2 7.2
9.4 9.3 9.3 9.1 9.1 8.4 6.8 6.1 5.8 5.8 5.6 5.2 5.0 5.0 5.3 4.7 3.3 3.5 4.5 3.4 2.0 2.2 2.4 3.0 2.8 3.3 5.3 4.8 4.4 3.7 3.6 4.6 6.4 9.0 9.4 8.3 8.2 8.2 8.5 7.2 7.4 7.7 7.9
9.4 9.5 9.6 9.3 7.2 5.8 6.0 5.9 5.5 5.3 4.8 4.8 4.8 4.4 4.3 4.4 3.2 4.9 4.5 2.8 1.8 2.0 2.2 3.6 3.3 4.3 4.7 4.8 4.0 2.9 3.0 4.4 4.5 5.7 8.0 8.2 7.8 8.0 8.5 8.3 8.1 8.0 8.1
8.4 8.3 9.2 9.3 7.9 6.8 5.2 3.8 5.0 4.9 5.1 4.9 4.6 4.2 4.5 4.7 4.7 4.4 3.7 2.5 1.9 2.2 2.3 3.2 3.7 3.8 5.5 5.3 3.1 2.1 1.6 0.9 3.1 5.4 6.1 6.5 7.4 8.0 8.4 8.3 9.3 8.5 7.8
9.1 8.9 9.4 9.5 9.6 9.7 8.7 5.7 4.7 4.0 3.0 2.7 2.7 3.6 4.0 3.8 3.7 3.3 3.6 2.7 1.6 2.3 2.6 3.2 4.0 4.6 4.4 4.8 5.0 4.3 4.4 3.0 1.6 1.3 4.3 5.4 6.7 7.6 7.9 8.1 9.6 8.9 8.6
9.2 9.3 9.4 8.9 8.9 8.9 8.8 9.6 7.3 5.4 4.5 4.0 3.8 3.5 3.4 3.4 3.8 3.9 3.8 3.1 2.7 2.4 2.5 3.5 3.8 4.4 3.5 4.3 5.8 5.9 4.1 5.5 3.6 1.5 1.1 4.6 5.1 7.0 8.0 8.4 9.2 8.7 8.6
9.2 9.4 9.4 9.4 9.5 9.5 8.1 8.1 7.8 8.5 7.4 6.1 4.5 3.9 5.3 4.9 4.5 3.8 4.0 3.5 3.0 3.2 3.5 3.1 3.7 3.9 3.9 3.1 5.7 3.3 3.5 2.0 5.0 3.8 1.2 1.7 3.1 5.3 6.9 8.0 8.4 9.0 8.3
9.4 9.3 8.8 7.6 8.4 7.8 7.1 7.4 7.7 7.4 8.3 6.7 6.1 4.8 5.4 4.8 5.2 5.8 4.9 4.0 3.7 3.1 3.6 3.5 3.5 4.2 4.0 5.1 4.0 5.0 3.8 2.7 2.9 2.9 5.4 2.9 1.9 1.7 4.9 6.4 7.4 8.6 7.9
9.4 9.2 7.7 7.3 7.1 8.0 7.3 6.8 6.9 6.8 7.0 7.4 6.7 6.8 6.5 5.3 5.0 5.7 4.0 4.1 4.7 4.5 4.3 3.9 4.3 4.4 3.5 4.1 4.9 5.4 4.3 5.4 3.8 4.3 5.1 3.7 3.6 1.3 0.3 2.4 5.8 7.3 8.0
Wind_Speed
7 18 16 15 16 16 16 18 21 23 24 24 23 22 22 23 22 21 19 18 17 18 17 16 16 15 16 15 15 14 16 16 15 16 17 17 17 17 15 15 18 18 16
14 19 18 17 17 17 17 19 22 23 26 25 24 23 23 23 22 21 19 19 19 19 19 19 18 17 17 15 14 15 15 15 15 15 16 16 15 16 14 17 19 18 17
15 19 23 17 18 18 19 20 21 23 26 26 25 25 25 25 24 23 21 20 19 19 18 18 16 18 19 18 16 16 15 16 15 15 12 14 15 13 15 18 19 19 18
12 18 22 18 19 19 20 21 22 24 24 25 25 25 25 25 23 23 21 20 21 22 21 20 19 18 17 16 18 18 17 17 16 16 9 13 14 13 15 17 17 18 19
12 17 20 21 20 19 18 19 20 21 23 23 24 24 24 24 24 22 19 17 18 18 19 19 20 20 19 19 20 20 18 20 18 14 10 10 12 13 14 16 18 16 16
11 14 16 15 15 17 19 19 19 19 20 22 23 25 25 24 23 20 18 18 18 18 18 19 19 19 20 21 20 19 21 22 19 12 12 11 11 12 12 15 18 19 19
9 11 13 14 15 17 18 19 19 19 21 22 24 24 24 24 23 22 21 19 19 21 21 21 21 21 20 20 22 22 23 23 12 13 13 11 12 11 11 16 19 20 20
10 11 14 17 14 14 16 19 21 20 20 21 21 21 22 23 23 22 22 22 22 22 22 21 19 21 21 20 20 23 24 17 13 14 14 15 16 12 13 16 19 18 19
8 10 12 18 18 14 16 17 19 19 19 17 17 19 21 22 22 23 23 21 21 21 20 20 20 20 21 20 20 21 22 17 12 12 13 14 18 16 12 15 16 17 17
8 10 12 15 18 18 18 16 16 18 19 19 19 21 21 21 22 23 22 20 20 18 18 19 20 21 20 22 21 22 20 13 13 13 13 13 17 19 16 17 16 15 15
9 11 12 14 16 18 18 19 17 15 16 17 17 18 21 22 22 21 22 22 18 17 16 17 18 21 21 19 21 24 22 16 13 12 11 23 19 18 19 19 17 15 14
13 13 14 14 15 15 16 17 20 20 20 21 22 22 22 22 20 22 23 22 20 18 15 16 21 21 22 19 20 23 20 13 15 11 14 21 21 20 19 21 18 16 14
10 10 12 11 12 13 12 12 12 14 14 20 24 24 24 22 18 21 16 20 21 17 17 17 19 21 21 19 20 21 18 15 14 12 18 20 21 22 20 19 19 19 18
12 10 11 13 12 14 11 10 9 8 12 10 21 24 17 10 13 12 14 20 19 19 16 18 16 19 17 19 21 20 15 17 13 12 19 23 22 21 21 21 21 22 20
12 11 12 12 14 13 14 12 11 10 9 13 15 19 19 12 10 11 10 14 17 15 16 13 13 14 13 11 14 14 16 18 15 14 19 22 23 23 23 21 22 22 23
11 13 12 14 14 14 15 16 11 10 11 13 14 17 20 16 9 10 9 7 9 14 16 15 7 7 5 8 5 10 15 16 17 16 19 21 24 23 22 22 23 23 24
12 14 13 16 15 15 17 14 13 12 11 9 10 17 21 19 15 10 9 8 9 13 17 14 10 8 5 5 5 5 10 13 16 16 20 21 23 24 24 23 23 24 24
12 14 13 10 14 13 11 12 11 11 8 8 10 17 21 19 21 12 11 8 12 13 12 8 4 3 6 7 5 4 2 7 10 14 19 20 21 22 22 23 22 22 24
15 15 15 13 10 10 7 7 8 8 7 8 9 11 17 20 21 12 10 7 17 9 10 12 12 14 9 9 7 5 3 2 2 11 12 18 18 21 20 23 23 23 23
16 16 16 14 15 12 7 5 4 6 6 6 7 8 11 14 17 12 10 11 13 11 10 9 12 13 12 11 8 7 2 4 6 4 8 13 17 19 20 23 23 22 24
17 18 18 16 16 12 8 4 3 4 6 8 8 10 10 12 14 12 9 11 12 12 14 15 12 16 10 13 9 5 3 3 1 6 12 11 15 17 19 21 24 22 22
15 16 17 17 17 13 9 6 2 2 2 4 5 3 10 11 10 9 9 11 14 10 13 14 15 9 4 13 8 10 4 0 1 0 4 8 11 18 18 21 22 26 24
15 16 16 16 16 13 15 8 5 2 2 2 5 6 6 5 8 11 12 11 12 12 13 16 16 19 10 13 14 7 4 4 3 1 3 7 12 9 18 22 22 22 24
13 14 14 14 14 12 14 12 14 8 7 2 1 2 4 6 7 5 9 13 14 12 15 17 15 15 12 14 9 3 7 5 5 3 1 4 4 11 12 15 19 25 24
14 14 14 15 15 14 14 13 10 12 9 5 5 4 3 4 7 5 7 6 10 10 14 18 18 17 13 15 11 10 6 3 6 3 7 4 1 3 6 10 16 17 21
13 12 12 14 15 15 14 14 13 10 9 9 7 6 6 4 2 7 6 8 13 5 9 12 17 19 15 14 14 13 14 11 9 7 4 7 6 2 3 2 8 16 19
Wind_Direction
168 150 159 157 147 142 146 150 157 159 158 161 156 155 153 149 148 145 142 139 138 139 139 136 133 131 127 123 117 111 112 112 114 114 111 110 113 111 113 117 125 109 102
153 160 164 161 152 146 148 152 159 161 159 160 159 158 156 151 149 149 151 147 143 145 147 143 138 133 131 126 118 113 113 113 114 109 112 107 109 114 104 86 93 105 103
155 163 175 162 156 153 155 155 161 165 160 161 163 163 160 154 155 156 157 152 148 147 148 145 144 141 139 134 127 122 118 118 116 121 146 121 107 108 103 100 108 111 108
156 163 176 167 165 161 160 159 164 168 161 163 165 166 160 156 159 161 162 157 155 155 155 152 152 147 139 134 131 129 126 124 131 156 161 117 117 110 113 113 111 111 110
166 172 175 172 170 163 161 160 163 165 163 167 166 164 161 162 165 162 161 159 157 155 154 156 156 148 144 145 142 136 133 139 161 194 123 125 123 109 114 115 120 125 115
178 179 151 171 169 164 163 164 164 166 165 167 167 168 166 166 163 159 161 165 163 158 159 159 158 155 155 152 144 141 144 155 184 138 102 107 111 113 110 88 96 96 102
178 183 167 183 183 173 169 169 169 170 170 172 174 171 168 165 162 163 165 167 169 168 167 165 163 162 161 155 149 150 155 173 182 112 130 108 120 117 115 104 105 101 98
177 187 181 186 192 185 180 180 178 177 175 178 176 170 166 165 166 166 170 175 176 174 170 166 167 168 164 157 153 155 163 184 161 147 142 142 129 130 106 103 103 101 102
184 190 191 191 198 198 201 192 185 182 182 177 175 172 167 167 167 172 177 181 183 179 169 167 167 169 166 156 154 159 167 184 153 152 142 140 130 125 113 104 103 102 101
198 201 198 187 197 206 212 216 204 192 187 183 180 177 171 170 173 178 179 182 185 177 171 172 167 163 162 159 157 161 168 188 153 166 157 138 142 139 137 125 115 109 105
212 205 201 202 195 205 209 210 212 204 194 188 184 184 179 192 188 185 195 180 180 175 174 171 164 164 163 161 158 160 166 189 161 183 162 141 145 145 138 128 121 118 114
224 211 209 210 208 201 214 216 212 213 214 210 208 203 208 208 196 194 195 174 177 178 174 169 163 164 163 172 175 165 190 184 190 175 138 155 152 150 141 132 127 122 117
242 234 231 221 224 212 212 210 206 210 210 214 213 212 209 209 195 199 183 188 198 187 189 183 172 179 189 184 180 189 191 183 192 185 145 161 155 149 145 140 137 137 133
255 257 237 229 225 223 221 210 212 203 199 207 217 209 205 204 200 195 192 198 201 190 197 194 191 196 191 192 186 192 189 194 184 180 154 159 153 153 153 152 146 141 138
284 272 260 239 225 227 223 227 210 216 206 204 207 213 203 202 198 188 201 200 200 180 191 193 195 199 184 192 190 195 195 203 184 174 161 163 152 158 157 154 151 146 140
319 303 282 248 231 232 227 225 220 216 214 204 201 206 208 200 194 195 195 190 189 177 182 185 189 178 165 162 205 215 214 200 189 175 157 168 161 160 160 157 152 149 142
331 325 307 293 253 228 240 239 233 230 220 210 205 201 203 199 200 193 193 186 183 174 176 171 144 128 140 163 173 208 224 207 195 181 162 163 164 162 160 158 156 152 147
350 335 334 305 277 254 228 245 238 241 226 219 216 206 201 202 199 203 198 185 157 158 152 136 107 99 183 174 178 155 222 219 196 189 175 160 170 168 160 156 154 155 153
11 6 3 3 343 310 270 242 250 234 230 217 214 215 209 203 200 197 197 173 156 171 172 173 190 182 188 164 143 118 122 123 262 193 180 162 175 169 168 156 156 158 155
23 18 28 24 16 2 342 279 242 235 226 235 219 209 214 209 207 204 194 162 166 170 178 183 169 180 172 158 139 112 7 167 178 193 190 174 173 169 171 167 159 160 157
26 21 16 23 30 21 12 7 327 292 230 222 210 195 210 219 203 199 194 167 169 181 183 181 180 173 166 155 125 86 75 73 137 206 183 174 180 175 175 174 177 162 161
20 15 15 14 10 13 12 5 10 338 343 343 353 286 198 195 203 195 186 178 176 178 178 181 175 165 149 173 163 158 154 212 243 327 245 174 181 175 180 176 189 165 165
15 10 5 1 356 1 356 348 346 307 303 33 7 5 345 307 219 208 195 186 182 184 185 182 178 180 169 185 175 157 152 178 153 151 323 197 175 183 179 186 180 174 170
6 358 352 351 350 348 345 344 341 332 329 331 316 138 306 280 295 263 213 196 198 189 189 186 187 182 169 184 188 154 119 130 160 166 134 307 176 178 186 180 181 182 166
354 349 345 339 338 340 339 331 330 324 316 313 307 286 267 241 235 346 282 259 218 211 204 185 186 192 179 182 185 180 165 157 153 146 187 182 87 341 182 169 184 182 165
341 338 330 328 325 323 320 317 308 295 299 300 298 287 274 299 328 263 255 311 303 234 209 213 194 190 180 184 193 185 190 182 183 170 156 161 155 64 28 22 179 187 170